2020-081C (46907 NORAD) Tracking and Keplerian Element Data

This shows tracking and keplerian element data for the satellite.

Feedback or suggestion? Click here.




ElementValue
Catalog46907
Name2020-081C
Epoch Orbit272
Epoch Day330.49915321
Epoch Year2020
RAAN352.828
Inclination36.9048
Eccentricity0.0006889
Argument of Perigee110.8689
Mean Anonmoly249.2786
Mean Motion14.98560894
Decay Rate5.9E-06
L11 46907U 20081C 20330.49915321 .00000590 00000-0 54712-4 0 9996
L22 46907 36.9048 352.8280 0006889 110.8689 249.2786 14.98560894 2723

Live tracking and technical data element details for 2020-081C (NORAD 46907). 2020-081C can be tracked NOW for your location showing map with azimuth and elevation plus other details from your city location.

Track the satellite on the map from your city or location and see movement details for azimuth, elevation, latitude, longitude, range, height, and movement on the map or in text.







IsCatalogInMostPopularTable: catalog: 46907, numindb: 6
Update: records affected: 1



GetName: 46907 2020-081C

Hit Count: updated at: Thu, 26 Nov 2020 20:30:36 GMT